Regional Weather Roundup
Issued by NWS

Home | Current Version | Previous Version | Graphics & Text | Print | Product List | Glossary On
Versions: 1 2 3 4 5 6 7 8 9 10 11 12 13 14 15 16 17 18 19 20 21 22 23 24 25 26 27 28 29 30 31 32 33 34 35 36 37 38 39 40 41 42 43 44 45 46 47 48 49 50
757
ASUS45 KTFX 302110
RWRMT
MONTANA REGIONAL WEATHER ROUNDUP
NATIONAL WEATHER SERVICE GREAT FALLS MT
300 PM MDT SAT APR 30 2016

NOTE: "FAIR" INDICATES FEW OR NO CLOUDS BELOW 12000 FEET WITH NO
SIGNIFICANT WEATHER AND/OR OBSTRUCTIONS TO VISIBILITY.

MTZ001>007-043-302200-
WEST OF THE DIVIDE

CITY           SKY/WX    TMP DP  RH WIND       PRES   REMARKS
KALISPELL      CLOUDY    60  32  34 E6        30.19R
MISSOULA       CLOUDY    53  41  63 VRB5      30.22S
BUTTE          CLOUDY    45  30  55 E7        30.17R
MULLAN PASS    CLOUDY    41  32  70 VRB3      30.23R
ANACONDA         N/A     48  34  57 N8        30.17R
DEER LODGE       N/A     50  30  46 NE10      30.19R
EUREKA           N/A     61  34  36 NW6       30.20S
HAMILTON         N/A     48  37  66 CALM      30.20F
LIBBY            N/A     61  34  36 W6        30.20R
PLAINS           N/A     60  44  55 CALM      30.20F
THOMPSON FALLS   N/A     59  40  49 NE7       30.22
$$

MTZ008-052>055-302200-
SOUTHWEST MONTANA

CITY           SKY/WX    TMP DP  RH WIND       PRES   REMARKS
BOZEMAN        CLOUDY    51  34  52 CALM      30.17S
DILLON         CLOUDY    50  29  44 NE13      30.12R
ENNIS          CLOUDY    50  32  50 N17G24    30.18R
THREE FORKS      N/A     49  30  48 CALM      30.16R
TWIN BRIDGES     N/A     53  27  37 NW21      30.09S
$$

MTZ009-010-012-014-046-048-049-054-302200-
EAST SLOPES AND CENTRAL MONTANA

CITY           SKY/WX    TMP DP  RH WIND       PRES   REMARKS
CUT BANK       CLOUDY    51  33  50 E10       30.26R
GREAT FALLS    CLOUDY    51  35  54 E10       30.23R
HELENA         CLOUDY    50  35  56 N13       30.20R
CHOTEAU          N/A     50  37  62 NE13      30.25R
CONRAD           N/A     52  42  68 N7        30.25S
$$

MTZ011-013-016-021-045-047-050-051-302200-
NORTH CENTRAL MONTANA

CITY           SKY/WX    TMP DP  RH WIND       PRES   REMARKS
HAVRE          CLOUDY    58  36  43 VRB6      30.25S
LEWISTOWN      CLOUDY    49  33  54 E9        30.25R
N BAR RANCH    PTSUNNY   46  32  57 E5        30.27R
CHINOOK          N/A     57  36  44 SE7       30.26R
$$

MTZ017>020-022>027-061-062-302200-
NORTHEAST MONTANA

CITY           SKY/WX    TMP DP  RH WIND       PRES   REMARKS
GLASGOW        SUNNY     62  29  28 E15       30.25S
JORDAN           N/A     58  32  37 E14       30.23R
SIDNEY         SUNNY     63  28  27 E18G25    30.25R
WOLF POINT     MOSUNNY   64  30  27 E12       30.25S
PLENTYWOOD       N/A     61  25  25 NE16      30.27S
POPLAR           N/A     63  28  27 NE14G21   30.25S
SCOBEY           N/A     62  26  25 NE8       30.24S
$$

MTZ028>42-056>058-302200-
SOUTHCENTRAL AND SOUTHEAST MONTANA

CITY           SKY/WX    TMP DP  RH WIND       PRES   REMARKS
BAKER          CLOUDY    58  31  35 E14G22    30.20S
BILLINGS       CLOUDY    52  35  52 NE8       30.21R
LIVINGSTON     CLOUDY    46  33  60 E16G24    30.19R
MILES CITY     MOSUNNY   58  29  33 E8        30.21R
EKALAKA          N/A     54  30  40 NE14      30.15S
FORSYTH          N/A     57  34  41 NE12      30.21S
LAUREL           N/A     50  29  44 N7        30.18R
ROUNDUP          N/A     53  30  41 NE6       30.13R
$$

REGIONAL REPORTS...DAKOTAS

CITY           SKY/WX    TMP DP  RH WIND       PRES   REMARKS
WILLISTON      SUNNY     63  29  27 E15       30.25S
MINOT          SUNNY     66  27  23 E13G26    30.23F
DICKINSON      PTSUNNY   56  30  37 E15       30.18F
BEACH            N/A     57  28  33 E10G23    30.24S
CROSBY           N/A     63  25  23 E12G22    30.29S
WATFORD CITY     N/A     59  28  31 E13       30.25S
BISMARCK       SUNNY     59  29  31 E20G36    30.19S
GRAND FORKS    MOSUNNY   61  27  27 E18G33    30.20F
FARGO          CLOUDY    64  24  21 NE18      30.13F
BUFFALO SD       N/A     54  30  40 E17G26    30.10R
RAPID CITY     CLOUDY    48  34  58 N16       30.09S
$$

REGIONAL REPORTS...WYOMING/IDAHO/WASHINGTON

CITY           SKY/WX    TMP DP  RH WIND       PRES   REMARKS
GILLETTE       CLOUDY    45  34  65 N14       30.15R
SHERIDAN       CLOUDY    47  34  60 CALM      30.20R
BUFFALO WY       N/A    N/A N/A N/A MISG      30.19S
CODY           CLOUDY    45  32  61 NW18G24   30.16R
YELLOWSTONE LA   N/A     40  24  53 VRB6      30.13R
IDAHO FALLS    PTSUNNY   60  30  32 N15G24    30.01S
SALMON         CLOUDY    52  30  43 CALM      30.11F
BOISE          SUNNY     68  36  30 NW22G30   30.01S
SPOKANE        PTSUNNY   60  40  47 N5        30.23S
$$

REGIONAL REPORTS...ALBERTA

CITY           SKY/WX    TMP DP  RH WIND       PRES   REMARKS
EDMONTON       MOSUNNY   63  36  36 W9        30.21F
CALGARY        CLOUDY    54  30  40 SW2       30.27S
LETHBRIDGE     PTSUNNY   57  37  47 VRB6      30.26R
MEDICINE HAT   CLOUDY    57  36  44 VRB2      30.26S
WATERTON GATE    N/A     54  28  37 E5          N/A
CARDSTON         N/A     57  32  38 SE5         N/A
MILK RIVER       N/A     54  34  47 E3          N/A
ONEFOUR          N/A     55  34  44 E8G17       N/A
$$

REGIONAL REPORTS...SASKATCHEWAN

CITY           SKY/WX    TMP DP  RH WIND       PRES   REMARKS
SWIFT CURRENT  PTSUNNY   63  28  27 SE10G18   30.26S
REGINA         MOSUNNY   64  23  20 E10G18    30.29F
SASKATOON      MOSUNNY   68  25  19 SE13      30.30F
CYPRESS HILLS    N/A     52  30  43 S7          N/A
VAL MARIE        N/A     61  28  29 E8          N/A
ROCKGLEN         N/A     59  25  27 E7          N/A
$$




USA.gov is the U.S. government's official web portal to all federal, state and local government web resources and services.